ARSAT 2

Last updated on Sun Jun 21 2026 00:03:06 GMT+0000 (Coordinated Universal Time)

1 40941U 15054B 26171.09082887 -.00000230 00000+0 00000+0 0 9996 2 40941 0.0116 20.3420 0002070 52.8593 146.7891 1.00270377 39331
UTC large
Height (km)
Speed (km/s)
/
Latitude / Longitude
Inclination (degrees)
Orbital Period (minutes)
Azimuth
Elevation
Range (km)
Doppler Factor

Next 0 passes for location: London (51.5072 / 0.1276)

No passes found over London.
ARSAT 2